Location: Litvinovka
(48.6667°N, 34.3500°E)
Time: 15:58:43
(UTC+00:00)

Cosmos 1428 Rocket - Pass Details

Date: 18 September 2020
Orbit: 947 x 988 km, 82.9° (Epoch: 21 October)

Event Time Altitude Azimuth Distance (km) Brightness Sun altitude
Rises 18:23:48 0° 350° (N) 3,705 8.2 -24.9°
Reaches altitude 10° 18:26:20 10° 350° (N) 2,748 7.4 -25.2°
Maximum altitude 18:32:39 84° 263° (W) 988 4.4 -26.1°
Enters shadow 18:34:22 51° 181° (S) 1,209 4.7 -26.3°
